Location: Sceptre
(50.8619°N, 109.2670°W)
Time: 08:28:42
(UTC+00:00)

First-Move - Visible Passes

Search period start: 25 June 2022 00:00
Search period end: 05 July 2022 00:00
Orbit: 571 x 660 km, 97.6° (Epoch: 24 June)

Date Brightness Start Highest point End Pass type
(mag) Time Alt. Az. Time Alt. Az. Time Alt. Az.
28 Jun ? 10:02:48 10° ENE 10:04:47 13° E 10:06:46 10° ESE visible
29 Jun ? 10:17:54 10° NE 10:20:57 18° E 10:24:00 10° SE visible
04 Jul ? 10:02:21 10° ENE 10:04:28 13° E 10:06:37 10° ESE visible
